Location: Bremen
(53.0796°N, 8.8241°E)
Time: 19:20:07
(UTC+01:00)

ISS - Pass Details

Date: 14 November 2017
Orbit: 402 x 407 km, 51.6° (Epoch: 24 November)

Event Time Altitude Azimuth Distance (km) Brightness Sun altitude
Exits shadow 05:45:14 29° 204° (SSW) 769 -2.6 -18.1°
Drops below altitude 10° 05:48:03 10° 144° (SE) 1,452 -0.4 -17.6°
Sets 05:50:16 0° 133° (SE) 2,309 0.9 -17.3°
